KCGE

Details ICAO KCGE
Name CAMBRIDGE DORCHESTER
Region United States
Timezone America/New_York (UTC-4.0)
Plans Departing 1
Arriving 1
Stats Elevation 19 ft / 6 m (AMSL)
Location 38.539325° -76.030399°
Runways 1
Magnetic Variation 11.337° W
Sunrise 2018-05-22 09:48:29 UTC / 2018-05-22 05:48:29 Local
Sunset 2018-05-23 00:15:59 UTC / 2018-05-22 20:15:59 Local
Advertisement - Login to hide

Runways

ID Width Length Bearing (true) Bearing (mag) Surface Threshold Offset Overrun Length
16 75 ft / 23 m 4,479 ft / 1,365 m 143.94° 155.28° Asphalt 0 ft / 0 m 0 ft / 0 m
34 75 ft / 23 m 4,479 ft / 1,365 m 323.94° 335.28° Asphalt 0 ft / 0 m 0 ft / 0 m

Map

Weather


0- 5 10 15 20 25 30 35+ Temperature / ° C

Clouds and Precipitation
Forecast for 2018-05-22 12:00 UTC. Updated an hour ago

Ground ~20,000 ft ~40,000 ft Winds

METAR

KCGE 221215Z AUTO 14007KT 10SM SCT048 19/15 A3014 RMK A01

TAF

Not found

Frequencies

Recorded 120.67 MHz AWOS 3
Approach 127.95 MHz PATUXENT APP/DEP
Unicom 122.70 MHz CTAF/UNICOM
Warning: Do not use this data for real-world aviation or navigation. No guarantee of current accuracy is given.